Date,TemperatureHighF,TemperatureAvgF,TemperatureLowF,DewpointHighF,DewpointAvgF,DewpointLowF,HumidityHigh,HumidityAvg,HumidityLow,PressureMaxIn,PressureMinIn,WindSpeedMaxMPH,WindSpeedAvgMPH,GustSpeedMaxMPH,PrecipitationSumIn
2013-3-1,34,32,31,32,28,25,93,84,75,0.00,40.00,16,6,0,0.02
2013-3-2,36,33,30,31,18,-100,94,80,67,0.00,40.00,17,10,0,0.00
2013-3-3,41,39,36,34,30,28,85,70,60,0.00,40.00,25,12,0,0.00
2013-3-4,42,40,38,33,32,30,79,71,64,0.00,40.00,20,11,0,0.00
2013-3-5,40,37,34,33,32,29,89,82,68,0.00,40.00,13,6,0,0.00
2013-3-6,44,39,36,33,31,30,82,73,60,0.00,40.00,13,5,0,0.00
2013-3-7,42,39,35,34,32,29,91,77,66,0.00,40.00,31,20,0,0.22
2013-3-8,41,38,36,33,31,28,89,75,61,0.00,40.00,31,18,0,0.03
2013-3-9,40,36,33,33,32,27,94,84,72,0.00,40.00,19,8,0,0.15
2013-3-10,34,33,30,32,27,22,98,82,64,0.00,40.00,18,10,0,0.10
2013-3-11,36,34,32,27,24,18,82,68,49,0.00,40.00,21,10,0,0.01
2013-3-12,33,30,28,18,13,7,56,49,36,0.00,40.00,22,13,0,0.00
2013-3-13,30,27,24,14,8,-100,65,48,38,0.00,40.00,17,12,0,0.00
2013-3-14,29,25,21,23,18,-100,88,79,54,0.00,40.00,32,22,0,0.00
2013-3-15,37,31,27,23,21,17,80,68,49,0.00,40.00,27,15,0,0.00
2013-3-16,37,31,28,23,19,12,71,59,46,0.00,40.00,20,13,0,0.00
2013-3-17,36,31,29,21,14,4,68,50,34,0.00,40.00,10,6,0,0.00
2013-3-18,34,29,25,18,8,-100,72,54,38,0.00,40.00,15,8,0,0.00
2013-3-19,29,26,23,15,8,-100,61,49,32,0.00,40.00,21,14,0,0.00
2013-3-20,28,24,20,15,-10,-100,58,48,33,0.00,40.00,22,13,25,0.00
2013-3-21,32,28,22,18,13,9,71,55,46,0.00,40.00,12,6,17,0.00
2013-3-22,39,35,32,33,28,18,94,76,52,0.00,40.00,19,7,27,0.14
2013-3-23,34,33,32,29,25,23,84,71,64,0.00,40.00,12,7,17,0.00
2013-3-24,33,28,26,27,26,23,97,90,73,0.00,40.00,22,13,26,0.00
2013-3-25,27,18,14,23,11,5,89,73,63,0.00,40.00,33,24,43,0.00
2013-3-26,21,17,15,15,7,-100,90,73,61,0.00,40.00,25,11,33,0.00
2013-3-27,31,24,18,21,12,-100,86,66,52,0.00,40.00,19,12,24,0.00
2013-3-28,37,35,31,33,27,21,95,75,62,0.00,40.00,21,13,28,0.19
2013-3-29,40,38,35,33,32,30,93,79,67,0.00,40.00,14,8,19,0.04
2013-3-30,40,36,34,35,32,-100,96,90,76,0.00,40.00,9,5,10,0.01
2013-3-31,40,37,34,35,33,31,93,86,77,0.00,40.00,9,5,12,0.09